User: anonymous   Login
Location: Unspecified
(0.0000°N, 0.0000°E)
Time: 07:31:30
(UTC+00:00)
Language:

Cosmos 1733 - Orbit

View from above orbital plane
View from above orbital plane
View from above satellite
View from above satellite

Ground track
Ground track

The orbit data is extracted from the following two-line orbital elements,

1 16611U 86018A   18023.92387040 +.00000508 +00000-0 +24338-4 0  9992
2 16611 082.4897 180.2401 0011212 299.7433 060.2683 15.16615935742173
Epoch (UTC): 23 January 2018 22:10:22
Eccentricity: 0.0011212
inclination: 82.4897°
perigee height: 508 km
apogee height: 524 km
right ascension of ascending node: 180.2401°
argument of perigee: 299.7433°
revolutions per day: 15.16615935
mean anomaly at epoch: 60.2683°
orbit number at epoch: 74217

The dashed part of the orbit path shows where the satellite is in the earth's shadow,  

DLR